{"data":{"norad_id":59099,"epoch":"2026-05-24T23:20:26.419200Z","epoch_age_seconds":70675,"freshness":"FRESH","line1":"1 59099U 24043B   26144.97252800  .00005762  00000+0  37581-3 0  9991","line2":"2 59099  97.8575 283.0903 0008239  61.6900 298.5158 15.08267017121597","mean_motion":15.08267017,"eccentricity":0.0008239,"inclination_deg":97.8575,"raan_deg":283.0903,"arg_perigee_deg":61.69,"mean_anomaly_deg":298.5158,"bstar":0.00037581,"rev_number":12159,"period_min":95.473810921372,"perigee_km":535.79423812552,"apogee_km":547.19640826769,"semimajor_km":6919.6323231966,"source":"CELESTRAK","updated_at":"2026-05-25T13:38:01.189112Z"}}